This is the latest recevied weather packets stored in our database for station/object IR3AS. If no packets are shown the sender has not sent any weather packets the latest 10 day(s).
| Time | Temp. | Humidity | Pressure | Rain* | Wind** | Luminosity | Snow |
|---|---|---|---|---|---|---|---|
| 1788148191 | 11.11° C | 86% | 865.7 hPa | 0 mm | - | - | - |
| 1788147891 | 11.11° C | 86% | 865.8 hPa | 0 mm | - | - | - |
| 1788147591 | 11.11° C | 85% | 865.8 hPa | 0 mm | - | - | - |
| 1788147291 | 11.11° C | 86% | 865.8 hPa | 0 mm | - | - | - |
| 1788146991 | 11.11° C | 86% | 865.9 hPa | 0 mm | - | - | - |
| 1788146691 | 11.11° C | 86% | 866.1 hPa | 0 mm | - | - | - |
| 1788146391 | 11.11° C | 85% | 866 hPa | 0 mm | - | - | - |
| 1788146091 | 11.11° C | 85% | 865.7 hPa | 0 mm | - | - | - |
| 1788145791 | 11.11° C | 82% | 865.7 hPa | 0 mm | - | - | - |
| 1788145491 | 11.11° C | 81% | 866 hPa | 0 mm | - | - | - |
| 1788145191 | 11.11° C | 81% | 866 hPa | 0 mm | - | - | - |
| 1788144891 | 11.11° C | 83% | 866 hPa | 0 mm | - | - | - |
| 1788144591 | 11.11° C | 85% | 866.2 hPa | 0 mm | - | - | - |
| 1788144291 | 11.11° C | 84% | 866.2 hPa | 0 mm | - | - | - |
| 1788143991 | 11.11° C | 83% | 866.2 hPa | 0 mm | - | - | - |
| 1788143691 | 11.11° C | 81% | 866.1 hPa | 0 mm | - | - | - |
| 1788143391 | 11.11° C | 82% | 866.1 hPa | 0 mm | - | - | - |
| 1788143091 | 11.11° C | 84% | 866.4 hPa | 0 mm | - | - | - |
| 1788142791 | 11.11° C | 85% | 866.3 hPa | 0 mm | - | - | - |
| 1788142524 | 11.11° C | 86% | 866.2 hPa | 0 mm | - | - | - |
| 1788142491 | 11.11° C | 86% | 866.2 hPa | 0 mm | - | - | - |
| 1788142191 | 11.11° C | 85% | 866.2 hPa | 0 mm | - | - | - |
| 1788141891 | 11.11° C | 85% | 866.3 hPa | 0 mm | - | - | - |
| 1788141592 | 11.11° C | 86% | 866.3 hPa | 0 mm | - | - | - |
| 1788141291 | 11.11° C | 86% | 866.5 hPa | 0 mm | - | - | - |
* Rain latest hour (hover to see other rain measurements)
** Current wind speed in m/s (hover to see current wind gust speed)